DELTA 2 R/B(1)

Satellite information

Favourite Embed

Satellite Type and Status

ROCKET BODYIN ORBIT

Key statistics

Satellite DELTA 2 R/B(1) at a glance.

Uptime

10095

Days in orbit

Revolutions

≈ 13.6

Per day

Orbit

LEO

Low Earth Orbit

Inclination

26.9

Latest

Satellite identification and parameters

Extended collection of information and parameters for DELTA 2 R/B(1).

Object identification

Identified? True

Debris? False

Object name: DELTA 2 R/B(1)

International designator: 1998-002B

Object number (NORAD): 25135

Object ID (CCSDS): 25135

Country: UNITED STATES OF AMERICA (US)

Current information (Y/N): Y

RCS size: LARGE

Orbital parameters

Period: 105.67 minutes

Inclination: 26.8839 deg

SMA: 7403.923 km

Apoapsis: 1288.853 km

Periapsis: 762.723 km

RAAN: 122.6848 deg

Eccentricy: 0.03553048

Argument of periapsis: 171.5599 deg

Mean anomaly: 318.4111 deg

Mean motion: 13.62730406 rev/day

Mean motion (dot): 0.00000216 rev/day2

B* drag term: 0.000080918207 1/REarth

Two-line elements (TLE)

Creation date: Aug. 31, 2025, 2:26 a.m.

Reference frame: TEME

Reference center: EARTH

Epoch: Aug. 30, 2025, 10:28 p.m. UTC

TLE line 0: 0 DELTA 2 R/B(1)

TLE line 1: 1 25135U 98002B 25242.93644537 .00000216 00000-0 80918-4 0 9990

TLE line 2: 2 25135 26.8839 122.6848 0355305 171.5599 318.4111 13.62730406377258

Live tracking on map

Real-time ground track for satellite DELTA 2 R/B(1).

In-orbit conjunctions

A list of the most updated potential collisions computed for object DELTA 2 R/B(1).

Target Orbit TCA Probability of collision Miss distance Type
FENGYUN 1C DEB SSO 2025-07-13 21:29:49 0.0001300584 754.0 (m) DEBRIS
FENGYUN 1C DEB SSO 2025-01-05 04:20:28 0.0001241029 989.0 (m) DEBRIS
THORAD AGENA D DEB LEO 2024-05-28 18:25:20 0.0001315919 490.0 (m) DEBRIS

Associated space launch

Skynet 4 was the third generation of UK Ministry of Defense communications satellites. They provided jam-proof communications service between fixed and mobile land and sea-based ground stations.

DELTA 2 R/B(1) was lifted into orbit during the mission ‘Delta II | Skynet 4D’, on board a Delta II space rocket.

The launch took place on Jan. 10, 1998, 12:32 a.m. from Space Launch Complex 17B.

For more information about the launch, click the button.

Launch to space Delta II | Skynet 4D
Delta II | Skynet 4D

Agency: N/A

Status: Launch Successful

Launch date: Jan. 10, 1998, 12:32 a.m. UTC

Rocket: Delta II

Launch pad: Space Launch Complex 17B

Location: Cape Canaveral SFS, FL, USA

...

Latest news about this satellite

There are no fresh news available about this satellite. Check back as we update our databases every day.


Newsletter sign-up

Weekly statistics, charts and insights to help you stay on top of the space industry.